FW6791 Weather Reports


time (UTC)temp
F
wind
direction
speed
knots
gust
knots
rain 1hr
in
rain 24hr
in
rain mn
in
humidity
%
barometer
mb
20260507054247 43 158 0.0 0.0 0.00 0.00 0.00 81 1018.5
20260507053744 43 156 0.0 0.0 0.00 0.00 0.00 83 1018.4
20260507053242 43 156 0.0 0.0 0.00 0.00 0.00 82 1018.8
20260507052741 43 156 0.0 0.0 0.00 0.00 0.00 83 1018.7
20260507052236 43 157 0.0 0.0 0.00 0.00 0.00 82 1018.7
20260507051735 44 156 0.0 0.0 0.00 0.00 0.00 79 1018.5
20260507051231 45 156 0.0 0.0 0.00 0.00 0.00 77 1018.4
20260507050728 44 156 0.0 0.0 0.00 0.00 0.00 78 1018.5
20260507050225 44 159 0.0 0.0 0.00 0.00 0.00 79 1018.5
20260507045722 45 158 0.0 0.0 0.00 0.00 0.00 77 1018.5
20260507045218 45 155 0.0 0.0 0.00 0.00 0.00 77 1018.5
20260507044715 45 156 0.0 0.0 0.00 0.00 0.00 77 1018.4
20260507044211 46 156 0.0 0.0 0.00 0.00 0.00 75 1018.4
20260507043708 46 154 0.0 0.0 0.00 0.00 0.00 74 1018.3
20260507043205 47 148 0.0 0.0 0.00 0.00 0.00 74 1018.3
20260507042701 47 151 0.0 0.9 0.00 0.00 0.00 72 1018.3
20260507042156 47 145 0.9 0.9 0.00 0.00 0.00 72 1018.0
20260507041654 47 147 0.9 0.9 0.00 0.00 0.00 72 1018.3
20260507041150 47 159 0.0 0.9 0.00 0.00 0.00 72 1018.3
20260507040647 47 156 0.0 0.0 0.00 0.00 0.00 72 1018.0
20260507040143 47 156 0.0 0.0 0.00 0.00 0.00 72 1018.1
20260507035639 48 159 0.0 0.0 0.00 0.00 0.00 72 1018.1
20260507035135 48 133 0.0 0.9 0.00 0.00 0.00 72 1018.2
20260507034632 48 153 0.0 0.9 0.00 0.00 0.00 72 1018.1
20260507034130 48 147 0.0 0.0 0.00 0.00 0.00 73 1018.0
20260507033628 48 154 0.0 0.0 0.00 0.00 0.00 74 1018.0
20260507033125 47 156 0.0 0.0 0.00 0.00 0.00 75 1017.9
20260507032623 48 159 0.0 0.0 0.00 0.00 0.00 76 1018.0
20260507032118 47 159 0.0 0.0 0.00 0.00 0.00 75 1017.9
20260507031615 48 156 0.0 0.0 0.00 0.00 0.00 76 1017.9
20260507031112 48 157 0.0 0.0 0.00 0.00 0.00 75 1017.7
20260507030608 48 157 0.0 0.0 0.00 0.00 0.00 75 1017.7
20260507030107 48 157 0.0 0.0 0.00 0.00 0.00 75 1017.8
20260507025603 48 157 0.0 0.0 0.00 0.00 0.00 76 1017.8
20260507025100 48 156 0.0 0.0 0.00 0.00 0.00 75 1017.8
20260507024558 48 157 0.0 0.0 0.00 0.00 0.00 75 1017.7
20260507024050 48 156 0.0 0.0 0.00 0.00 0.00 73 1017.5
20260507023545 49 157 0.0 0.0 0.00 0.00 0.00 72 1017.4
20260507023043 50 156 0.0 0.0 0.00 0.00 0.00 71 1017.3
20260507022540 50 155 0.0 0.0 0.00 0.00 0.00 70 1017.3
20260507022035 50 156 0.0 0.0 0.00 0.00 0.00 70 1017.5
20260507021531 51 155 0.0 0.0 0.00 0.00 0.00 68 1017.7
20260507021028 51 154 0.0 0.0 0.00 0.00 0.00 68 1017.5
20260507020526 51 155 0.0 0.0 0.00 0.00 0.00 69 1017.4
20260507020022 51 156 0.0 0.0 0.00 0.00 0.00 69 1017.4
20260507015521 50 157 0.0 0.0 0.00 0.00 0.00 70 1017.4
20260507015018 51 156 0.0 0.0 0.00 0.00 0.00 69 1017.3
20260507014514 51 157 0.0 0.0 0.00 0.00 0.00 67 1017.2
20260507014010 51 151 0.0 0.0 0.00 0.00 0.00 66 1017.1
20260507013507 52 156 0.0 0.0 0.00 0.00 0.00 66 1017.1
20260507013004 52 156 0.0 0.0 0.00 0.00 0.00 63 1017.0
20260507012501 53 154 0.0 0.0 0.00 0.00 0.00 64 1016.9
20260507011957 53 140 0.0 0.9 0.00 0.00 0.00 63 1017.0
20260507011454 53 156 0.0 0.0 0.00 0.00 0.00 61 1016.9
20260507010950 53 148 0.9 0.9 0.00 0.00 0.00 61 1016.8
20260507010444 54 146 0.0 0.0 0.00 0.00 0.00 61 1016.9
20260507005942 54 137 0.9 0.9 0.00 0.00 0.00 59 1016.7
20260507005439 55 146 0.9 0.9 0.00 0.00 0.00 59 1016.7
20260507004935 55 116 0.9 0.9 0.00 0.00 0.00 58 1016.6
20260507004432 55 147 1.7 1.7 0.00 0.00 0.00 57 1016.7
20260507003930 56 142 0.0 0.9 0.00 0.00 0.00 57 1016.8
20260507003424 56 131 0.9 0.9 0.00 0.00 0.00 55 1016.6
20260507002914 57 138 0.0 0.9 0.00 0.00 0.00 55 1016.6
20260507002411 57 147 1.7 2.6 0.00 0.00 0.00 53 1016.7
20260507001908 57 146 0.9 1.7 0.00 0.00 0.00 54 1016.5
20260507001405 58 120 2.6 2.6 0.00 0.00 0.00 52 1016.5
20260507000902 58 126 2.6 3.5 0.00 0.00 0.00 52 1016.3
20260507000357 59 74 6.1 7.0 0.00 0.00 0.00 50 1016.4
20260506235853 59 102 3.5 5.2 0.00 0.00 0.00 51 1016.4
20260506235350 59 356 3.5 5.2 0.00 0.00 0.00 50 1016.3
20260506234846 59 156 1.7 2.6 0.00 0.00 0.00 54 1016.4
20260506234344 59 169 0.9 0.9 0.00 0.00 0.00 55 1016.2
20260506233841 59 72 3.5 5.2 0.00 0.00 0.00 52 1016.3
20260506233337 59 79 1.7 2.6 0.00 0.00 0.00 55 1016.1
20260506232835 59 104 3.5 3.5 0.00 0.00 0.00 54 1015.8
20260506232330 59 102 1.7 2.6 0.00 0.00 0.00 53 1015.7
20260506231826 58 62 5.2 7.0 0.00 0.00 0.00 52 1015.5
20260506231324 59 98 2.6 2.6 0.00 0.00 0.00 54 1015.4
20260506230821 59 21 4.3 7.0 0.00 0.00 0.00 52 1015.5
20260506230318 59 252 2.6 3.5 0.00 0.00 0.00 51 1015.3
20260506225814 59 32 5.2 7.8 0.00 0.00 0.00 52 1015.5
20260506225312 59 68 3.5 5.2 0.00 0.00 0.00 56 1015.4
20260506224808 58 95 2.6 3.5 0.00 0.00 0.00 55 1015.2
20260506224306 59 63 3.5 5.2 0.00 0.00 0.00 54 1015.5
20260506223802 59 147 1.7 2.6 0.00 0.00 0.00 53 1015.5
20260506223257 60 22 3.5 5.2 0.00 0.00 0.00 54 1015.4
20260506222754 60 91 4.3 6.1 0.00 0.00 0.00 53 1015.4
20260506222249 60 58 2.6 3.5 0.00 0.00 0.00 54 1015.3
20260506221742 60 63 4.3 5.2 0.00 0.00 0.00 53 1015.3
20260506221240 60 88 1.7 3.5 0.00 0.00 0.00 57 1015.5
20260506220737 59 60 0.9 2.6 0.00 0.00 0.00 54 1015.5
20260506220232 60 62 5.2 7.0 0.00 0.00 0.00 54 1015.4
20260506215729 60 65 5.2 7.8 0.00 0.00 0.00 53 1015.6
20260506215224 60 67 5.2 9.6 0.00 0.00 0.00 54 1015.4
20260506214721 59 67 7.0 7.8 0.00 0.00 0.00 55 1015.4
20260506214218 59 62 7.0 9.6 0.00 0.00 0.00 52 1015.2
20260506213716 59 36 4.3 7.0 0.00 0.00 0.00 53 1015.3
20260506213213 59 56 4.3 5.2 0.00 0.00 0.00 54 1015.5
20260506212710 59 58 4.3 7.8 0.00 0.00 0.00 54 1015.7
20260506212206 60 90 2.6 3.5 0.00 0.00 0.00 54 1015.5
20260506211656 59 111 2.6 2.6 0.00 0.00 0.00 56 1015.6
20260506211153 59 73 6.1 7.0 0.00 0.00 0.00 54 1015.8
20260506210650 59 74 4.3 7.0 0.00 0.00 0.00 57 1016.0
20260506210146 59 67 2.6 3.5 0.00 0.00 0.00 56 1015.8
20260506205644 58 93 4.3 5.2 0.00 0.00 0.00 57 1016.0
20260506205143 58 149 1.7 3.5 0.00 0.00 0.00 57 1016.0
20260506204642 58 127 3.5 5.2 0.00 0.00 0.00 56 1016.2
20260506204138 58 79 3.5 5.2 0.00 0.00 0.00 57 1016.3
20260506203637 59 66 5.2 6.1 0.00 0.00 0.00 58 1016.4
20260506203133 58 163 2.6 3.5 0.00 0.00 0.00 58 1016.3
20260506202631 58 92 3.5 6.1 0.00 0.00 0.00 56 1016.3
20260506202127 59 157 0.9 0.9 0.00 0.00 0.00 54 1016.7
20260506201624 58 53 4.3 6.1 0.00 0.00 0.00 57 1016.6
20260506201120 57 110 3.5 5.2 0.00 0.00 0.00 58 1016.9
20260506200617 57 116 1.7 3.5 0.00 0.00 0.00 60 1016.7
20260506200114 58 78 5.2 7.0 0.00 0.00 0.00 58 1016.8
20260506195610 59 101 1.7 2.6 0.00 0.00 0.00 56 1016.7
20260506195107 58 73 4.3 5.2 0.00 0.00 0.00 60 1016.5
20260506194605 59 108 7.8 8.7 0.00 0.00 0.00 60 1016.7
20260506194101 59 79 5.2 7.0 0.00 0.00 0.00 59 1016.8
20260506193559 59 121 2.6 5.2 0.00 0.00 0.00 58 1016.6
20260506193056 58 76 2.6 3.5 0.00 0.00 0.00 58 1016.9
20260506192552 59 21 5.2 7.8 0.00 0.00 0.00 58 1016.8
20260506192048 58 75 3.5 6.1 0.00 0.00 0.00 59 1016.8
20260506191545 58 98 5.2 7.0 0.00 0.00 0.00 57 1016.9
20260506191036 58 89 4.3 5.2 0.00 0.00 0.00 62 1016.8
20260506190533 58 79 3.5 3.5 0.00 0.00 0.00 60 1016.9
20260506190030 57 70 6.1 8.7 0.00 0.00 0.00 60 1016.8
20260506185527 57 76 5.2 7.0 0.00 0.00 0.00 60 1017.1
20260506185024 57 76 3.5 5.2 0.00 0.00 0.00 62 1017.1
20260506184521 57 117 2.6 3.5 0.00 0.00 0.00 67 1017.2
20260506184018 56 75 2.6 3.5 0.00 0.00 0.00 65 1017.1
20260506183514 56 67 4.3 6.1 0.00 0.00 0.00 64 1017.4
20260506183011 56 133 0.0 0.9 0.00 0.00 0.00 64 1017.5
20260506182509 56 26 5.2 7.0 0.00 0.00 0.00 65 1017.8
20260506182005 56 158 1.7 2.6 0.00 0.00 0.00 63 1017.9
20260506181503 56 56 4.3 6.1 0.00 0.00 0.00 62 1017.9
20260506181000 55 67 4.3 5.2 0.00 0.00 0.00 63 1018.0
20260506180456 56 152 0.0 0.9 0.00 0.00 0.00 66 1018.1
20260506175953 55 158 0.9 1.7 0.00 0.00 0.00 65 1018.2
20260506175449 55 145 0.9 1.7 0.00 0.00 0.00 65 1018.3
20260506174940 55 141 3.5 6.1 0.00 0.00 0.00 64 1018.3
20260506174438 56 145 1.7 1.7 0.00 0.00 0.00 62 1018.3
20260506173935 56 142 1.7 1.7 0.00 0.00 0.00 64 1018.4
20260506173432 56 75 1.7 2.6 0.00 0.00 0.00 62 1018.3
20260506172929 56 71 1.7 2.6 0.00 0.00 0.00 65 1018.2
20260506172426 55 80 4.3 5.2 0.00 0.00 0.00 63 1018.3
20260506171923 55 82 4.3 6.1 0.00 0.00 0.00 63 1018.3
20260506171420 55 136 2.6 3.5 0.00 0.00 0.00 65 1018.1
20260506170917 54 160 2.6 3.5 0.00 0.00 0.00 63 1018.1
20260506170413 54 59 4.3 6.1 0.00 0.00 0.00 64 1018.1
20260506165907 55 103 3.5 5.2 0.00 0.00 0.00 65 1018.2
20260506165405 55 65 5.2 7.8 0.00 0.00 0.00 63 1018.2
20260506164900 54 77 1.7 2.6 0.00 0.00 0.00 68 1018.2
20260506164356 54 57 3.5 7.8 0.00 0.00 0.00 69 1018.2
20260506163850 54 29 4.3 7.0 0.00 0.00 0.00 68 1018.0
20260506163344 54 70 3.5 3.5 0.00 0.00 0.00 66 1018.0
20260506162839 53 107 4.3 6.1 0.00 0.00 0.00 68 1017.9
20260506162337 53 74 6.1 7.0 0.00 0.00 0.00 67 1017.5
20260506161829 54 89 7.8 9.6 0.00 0.00 0.00 67 1017.2
20260506161326 54 110 5.2 6.1 0.00 0.00 0.00 68 1017.0
20260506160823 53 82 3.5 5.2 0.00 0.00 0.00 70 1016.9
20260506160319 53 78 6.1 7.8 0.00 0.00 0.00 68 1017.2
20260506155818 53 94 3.5 6.1 0.00 0.00 0.00 71 1017.2
20260506155315 52 77 4.3 6.1 0.00 0.00 0.00 70 1017.5
20260506153427 51 104 5.2 7.0 0.00 0.00 0.00 72 1017.2
20260506152925 51 86 10.4 11.3 0.00 0.00 0.00 72 1017.2
20260506152421 50 61 6.1 7.0 0.00 0.00 0.00 74 1017.2
20260506151920 51 75 3.5 6.1 0.00 0.00 0.00 75 1017.0
20260506151417 50 79 6.1 7.0 0.00 0.00 0.00 75 1017.1
20260506150914 50 57 7.0 8.7 0.00 0.00 0.00 74 1017.2
20260506150410 50 62 6.1 7.8 0.00 0.00 0.00 75 1016.9
20260506145908 50 128 4.3 6.1 0.00 0.00 0.00 75 1016.9
20260506145403 50 109 3.5 3.5 0.00 0.00 0.00 76 1017.0
20260506144901 49 58 1.7 2.6 0.00 0.00 0.00 78 1017.2
20260506144357 49 61 7.8 9.6 0.00 0.00 0.00 76 1017.1
20260506143856 48 60 7.8 11.3 0.00 0.00 0.00 76 1017.2
20260506143353 48 52 8.7 11.3 0.00 0.00 0.00 76 1017.3
20260506142851 48 37 6.1 7.0 0.00 0.00 0.00 77 1017.4
20260506142348 48 100 7.0 8.7 0.00 0.00 0.00 76 1017.5
20260506141847 48 57 1.7 5.2 0.00 0.00 0.00 80 1017.3
20260506141344 48 71 2.6 3.5 0.00 0.00 0.00 79 1017.3
20260506140842 48 59 7.0 8.7 0.00 0.00 0.00 79 1017.4
20260506140339 48 40 7.8 8.7 0.00 0.00 0.00 79 1017.0
20260506135836 47 52 4.3 7.0 0.00 0.00 0.00 82 1016.8
20260506135333 47 99 3.5 3.5 0.00 0.00 0.00 83 1017.1
20260506134829 47 30 6.1 8.7 0.00 0.00 0.00 82 1017.3
20260506134325 47 77 3.5 5.2 0.00 0.00 0.00 84 1017.4
20260506133823 47 34 6.1 7.0 0.00 0.00 0.00 84 1017.2
20260506133319 47 34 3.5 5.2 0.00 0.00 0.00 85 1017.3
20260506132816 46 89 4.3 6.1 0.00 0.00 0.00 85 1017.1
20260506132313 47 44 4.3 6.1 0.00 0.00 0.00 87 1017.1
20260506131811 46 34 4.3 5.2 0.00 0.00 0.00 87 1016.9
20260506131307 46 65 4.3 5.2 0.00 0.00 0.00 88 1017.1
20260506130804 46 55 5.2 7.0 0.00 0.00 0.00 88 1016.9
20260506130301 46 93 4.3 5.2 0.00 0.00 0.00 89 1016.8
20260506125759 46 147 7.0 8.7 0.00 0.00 0.00 89 1016.5
20260506125257 46 71 3.5 5.2 0.00 0.00 0.00 89 1016.8
20260506124755 46 96 3.5 5.2 0.00 0.00 0.00 88 1016.8
20260506124252 46 28 3.5 6.1 0.00 0.00 0.00 89 1016.7
20260506123749 46 111 3.5 3.5 0.00 0.00 0.00 90 1016.8
20260506123248 46 69 5.2 7.8 0.00 0.00 0.00 89 1016.6
20260506122744 45 75 4.3 5.2 0.00 0.00 0.00 89 1016.7
20260506122241 45 133 2.6 3.5 0.00 0.00 0.00 90 1016.6
20260506121740 45 87 7.0 8.7 0.00 0.00 0.00 89 1016.7
20260506121236 45 45 1.7 3.5 0.00 0.00 0.00 90 1016.8
20260506120733 45 74 3.5 6.1 0.00 0.00 0.00 91 1016.7
20260506120231 45 90 3.5 3.5 0.00 0.00 0.00 91 1016.8
20260506115729 45 61 2.6 3.5 0.00 0.00 0.00 92 1016.6
20260506115227 45 86 2.6 2.6 0.00 0.00 0.00 92 1016.6
20260506114724 45 71 2.6 3.5 0.00 0.00 0.00 92 1016.5
20260506114222 45 139 0.9 1.7 0.00 0.00 0.00 92 1016.4
20260506113720 45 149 0.9 0.9 0.00 0.00 0.00 92 1016.4
20260506113217 45 77 2.6 3.5 0.00 0.00 0.00 92 1016.5
20260506112713 45 132 0.9 1.7 0.00 0.00 0.00 92 1016.5
20260506112211 45 105 2.6 3.5 0.00 0.00 0.00 92 1016.2
20260506111708 45 78 3.5 3.5 0.00 0.00 0.00 91 1016.3
20260506111207 45 60 4.3 7.0 0.00 0.00 0.00 91 1015.8
20260506110703 45 83 0.9 1.7 0.00 0.00 0.00 91 1015.7
20260506110201 45 71 2.6 3.5 0.00 0.00 0.00 91 1015.6
20260506105657 45 134 2.6 3.5 0.00 0.00 0.00 91 1015.5
20260506105154 45 122 3.5 3.5 0.00 0.00 0.00 91 1015.3
20260506104652 45 86 2.6 3.5 0.00 0.00 0.00 90 1015.4
20260506104149 45 124 2.6 2.6 0.00 0.00 0.00 90 1015.3
20260506103646 45 198 5.2 7.0 0.00 0.00 0.00 90 1015.3
20260506103143 45 101 2.6 2.6 0.00 0.00 0.00 90 1015.1
20260506102642 45 92 0.9 1.7 0.00 0.00 0.00 90 1014.7
20260506102139 45 102 2.6 2.6 0.00 0.00 0.00 90 1014.6
20260506101635 45 103 4.3 7.0 0.00 0.00 0.00 90 1014.6
20260506101132 45 70 3.5 6.1 0.00 0.00 0.00 90 1014.4
20260506100631 45 144 3.5 5.2 0.00 0.00 0.00 90 1014.2
20260506100128 45 100 2.6 3.5 0.00 0.00 0.00 89 1014.2
20260506095627 45 139 1.7 3.5 0.00 0.00 0.00 88 1014.4
20260506095123 45 131 0.9 1.7 0.00 0.00 0.00 89 1014.4
20260506094621 45 100 1.7 1.7 0.00 0.00 0.00 89 1014.4
20260506094118 45 41 2.6 5.2 0.00 0.00 0.00 89 1014.3
20260506093616 45 90 0.9 2.6 0.00 0.00 0.00 89 1014.1
20260506093113 45 137 0.9 0.9 0.00 0.00 0.00 88 1014.0
20260506092611 45 138 2.6 3.5 0.00 0.00 0.00 88 1013.9
20260506092108 45 58 3.5 3.5 0.00 0.00 0.00 87 1013.6
20260506091606 45 145 2.6 2.6 0.00 0.00 0.00 88 1013.2
20260506091103 45 84 4.3 5.2 0.00 0.00 0.00 87 1013.2
20260506090601 45 79 4.3 6.1 0.00 0.00 0.00 87 1013.1
20260506090057 45 87 3.5 5.2 0.00 0.00 0.00 88 1013.2
20260506085554 45 96 4.3 5.2 0.00 0.00 0.00 87 1013.6
20260506085050 45 78 1.7 2.6 0.00 0.00 0.00 87 1013.8
20260506084547 45 106 3.5 5.2 0.00 0.00 0.00 86 1013.8
20260506084044 45 98 3.5 3.5 0.00 0.00 0.00 87 1013.7
20260506083541 45 109 1.7 1.7 0.00 0.00 0.00 87 1013.5
20260506083038 45 128 1.7 3.5 0.00 0.00 0.00 87 1013.7
20260506082535 45 86 1.7 2.6 0.00 0.00 0.00 87 1013.7
20260506082030 45 90 3.5 3.5 0.00 0.00 0.00 86 1013.5
20260506081529 45 137 2.6 3.5 0.00 0.00 0.00 86 1013.0
20260506081026 45 68 3.5 5.2 0.00 0.00 0.00 87 1012.5
20260506080524 45 50 5.2 7.0 0.00 0.00 0.00 87 1012.4
20260506073507 45 125 2.6 2.6 0.00 0.00 0.00 89 1012.3
20260506073004 45 60 5.2 7.0 0.00 0.00 0.00 89 1012.3
20260506072501 45 103 4.3 5.2 0.00 0.00 0.00 89 1012.3
20260506071959 45 130 2.6 3.5 0.00 0.00 0.00 90 1012.6
20260506071457 45 99 0.9 1.7 0.00 0.00 0.00 90 1012.4
20260506070953 45 80 5.2 6.1 0.00 0.00 0.00 89 1012.4
20260506070450 45 109 2.6 3.5 0.00 0.00 0.00 90 1012.7
20260506062428 45 123 3.5 5.2 0.00 0.00 0.00 93 1013.4
20260506061924 45 122 4.3 6.1 0.00 0.00 0.00 93 1013.5
20260506061420 45 66 2.6 3.5 0.00 0.00 0.00 94 1013.6
20260506060919 45 87 1.7 2.6 0.00 0.00 0.00 94 1013.7
20260506060417 45 85 2.6 2.6 0.00 0.00 0.00 94 1013.7